This is the latest recevied weather packets stored in our database for station/object KG5RGN-13. If no packets are shown the sender has not sent any weather packets the latest 1 day(s).
| Time | Temp. | Humidity | Pressure | Rain* | Wind** | Luminosity | Snow |
|---|---|---|---|---|---|---|---|
| 1777984960 | 10.56° C | 100% | 0 hPa | 0 mm | 0 m/s | - | - |
| 1777984699 | 10° C | 100% | 0 hPa | 0 mm | 0 m/s | - | - |
| 1777984660 | 10° C | 100% | 0 hPa | 0 mm | 0 m/s | - | - |
| 1777984360 | 10.56° C | 100% | 0 hPa | 0 mm | 2.24 m/s, 267° | - | - |
| 1777984060 | 10.56° C | 100% | 0 hPa | 0 mm | 0 m/s | - | - |
| 1777983760 | 11.11° C | 100% | 0 hPa | 0 mm | 0 m/s | - | - |
| 1777983460 | 10.56° C | 100% | 0 hPa | 0 mm | 0 m/s | - | - |
| 1777983160 | 10.56° C | 100% | 0 hPa | 0 mm | 1.79 m/s, 274° | - | - |
| 1777982860 | 11.11° C | 100% | 0 hPa | 0 mm | 2.24 m/s, 305° | - | - |
| 1777982560 | 10.56° C | 100% | 0 hPa | 0 mm | 2.68 m/s, 236° | - | - |
| 1777982326 | 11.11° C | 100% | 0 hPa | 0 mm | 3.13 m/s, 288° | - | - |
| 1777982260 | 11.11° C | 100% | 0 hPa | 0 mm | 3.13 m/s, 288° | - | - |
| 1777981960 | 10.56° C | 100% | 0 hPa | 0 mm | 3.58 m/s, 337° | - | - |
| 1777981806 | 10.56° C | 100% | 0 hPa | 0 mm | 0.45 m/s, 312° | - | - |
| 1777981660 | 10.56° C | 100% | 0 hPa | 0 mm | 0.45 m/s, 312° | - | - |
| 1777981360 | 10.56° C | 100% | 0 hPa | 0 mm | 0 m/s | - | - |
| 1777981060 | 11.11° C | 100% | 0 hPa | 0 mm | 2.68 m/s, 303° | - | - |
| 1777980760 | 11.11° C | 100% | 0 hPa | 0 mm | 0 m/s | - | - |
| 1777980460 | 11.11° C | 100% | 0 hPa | 0 mm | 2.68 m/s, 274° | - | - |
| 1777980160 | 11.11° C | 100% | 0 hPa | 0 mm | 2.68 m/s, 284° | - | - |
| 1777979860 | 11.67° C | 100% | 0 hPa | 0 mm | 3.13 m/s, 279° | - | - |
| 1777979560 | 11.11° C | 100% | 0 hPa | 0 mm | 3.13 m/s, 286° | - | - |
| 1777979260 | 11.11° C | 100% | 0 hPa | 0 mm | 2.68 m/s, 272° | - | - |
| 1777978993 | 10.56° C | 100% | 0 hPa | 0 mm | 0 m/s | - | - |
| 1777978960 | 10.56° C | 100% | 0 hPa | 0 mm | 0 m/s | - | - |
* Rain latest hour (hover to see other rain measurements)
** Current wind speed in m/s (hover to see current wind gust speed)